COSMOS 886 DEB

Satellite information

Favourite Embed

Satellite Type and Status

DEBRISIN ORBIT

Key statistics

Satellite COSMOS 886 DEB at a glance.

Uptime

17839

Days in orbit

Revolutions

≈ 12.8

Per day

Orbit

LEO

Low Earth Orbit

Inclination

65.8

Latest

Satellite identification and parameters

Extended collection of information and parameters for COSMOS 886 DEB.

Object identification

Identified? True

Debris? True

Object name: COSMOS 886 DEB

International designator: 1976-126BW

Object number (NORAD): 18518

Object ID (CCSDS): 18518

Country: COMMONWEALTH OF INDEPENDENT STATES (CIS)

Current information (Y/N): Y

RCS size: SMALL

Orbital parameters

Period: 112.372 minutes

Inclination: 65.7568 deg

SMA: 7713.769 km

Apoapsis: 1888.827 km

Periapsis: 782.442 km

RAAN: 241.9854 deg

Eccentricy: 0.07171489

Argument of periapsis: 149.3291 deg

Mean anomaly: 333.8361 deg

Mean motion: 12.81453287 rev/day

Mean motion (dot): 0.00000359 rev/day2

B* drag term: 0.00060257194 1/REarth

Two-line elements (TLE)

Creation date: Oct. 29, 2025, 7:31 p.m.

Reference frame: TEME

Reference center: EARTH

Epoch: Oct. 29, 2025, 5:38 a.m. UTC

TLE line 0: 0 COSMOS 886 DEB

TLE line 1: 1 18518U 76126BW 25302.23535050 .00000359 00000-0 60257-3 0 9990

TLE line 2: 2 18518 65.7568 241.9854 0717149 149.3291 333.8361 12.81453287719064

Live tracking on map

Real-time ground track for satellite COSMOS 886 DEB.

In-orbit conjunctions

A list of the most updated potential collisions computed for object COSMOS 886 DEB.

Target Orbit TCA Probability of collision Miss distance Type
CZ-2C R/B SSO 2024-09-10 10:22:27 0.0001031075 288.0 (m) ROCKET BODY

Associated space launch

Second generation ASAT satellite

COSMOS 886 DEB was lifted into orbit during the mission ‘Tsiklon-2 | IS-A 4’, on board a Tsiklon-2 space rocket.

The launch took place on Dec. 27, 1976, 12:05 p.m. from 90.

For more information about the launch, click the button.

Launch to space Tsiklon-2 | IS-A 4
Tsiklon-2 | IS-A 4

Agency: N/A

Status: Launch Successful

Launch date: Dec. 27, 1976, 12:05 p.m. UTC

Rocket: Tsiklon-2

Launch pad: 90

Location: Baikonur Cosmodrome, Republic of Kazakhstan

...

Latest news about this satellite

There are no fresh news available about this satellite. Check back as we update our databases every day.


Newsletter sign-up

Weekly statistics, charts and insights to help you stay on top of the space industry.